www.pogodaiklimat.ru

Погода и климат >> Архив погоды >> Россия >> Якутия >> Охотский Перевоз


ПОГОДА в Охотском Перевозе

  • Прогноз погоды в Охотском Перевозе
  • Монитор погоды в Охотском Перевозе
  • Климат города

АРХИВ ПОГОДЫ в Охотском Перевозе

Время (UTC), дата Ветер
(напр.,м/с)
 
Видим.   Явления Облачность Т
(С)
Тd
(С)
f
(%)
Тe
(С)
Тes
(С)
Комфортность P
(гПа)
Po
(гПа)
Тmin
(С)
Tmax
(С)
R
(мм)
R24
(мм)
S
(см)
09 18.04 Ю 4 20 км 9/9 600 м
[Cu med, cong]
+2.0 -7.7 49 -2 -2 1013.2 995.7 +5.2
12 18.04 ЮВ 3 10 км 1/1 1000 м
[Sc diur, vesp]
-0.8 -7.4 61 -5 -5 1014.3 996.6
15 18.04 ЮВ 3 10 км 1/1 1000 м
[Sc diur, vesp]
-0.8 -7.4 61 -5 -5 1014.3 996.6
18 18.04 С 1 10 км 9/9 1000 м
[Sc]
-5.9 -9.0 79 -8 -8 1015.4 997.3
21 18.04 СВ 2 20 км 9/0 600 м
[As op]
-4.5 -7.2 81 -9 -8 1015.8 997.7 -6.8 28
00 19.04 Ю 3 20 км 10/0
[As trans]
+0.1 -5.8 64 -4 -2 1016.4 998.7
03 19.04 Ю 3 20 км 10/0
[As trans]
+3.1 -10.8 35 0 +3 1016.6 999.0
06 19.04 ЮЗ 3 20 км 10/0
[As trans]
+3.6 -9.4 38 +1 +3 1016.2 998.7
09 19.04 С 1 20 км 10/0
[As trans]
+3.5 -8.0 43 +3 +3 1016.8 999.3 +4.7
12 19.04 Ю 4 10 км {снег} 10/8 600 м
[Frnb As op]
+1.9 -3.8 66 -3 -3 1017.8 1000.2
15 19.04 Ю 3 10 км 8/0
[As op]
+0.6 -1.1 88 -4 -4 1018.6 1000.9
18 19.04 Ю 4 4000 м слабый снег 10/0
[As op]
-0.3 -2.1 88 -6 -6 1018.4 1000.7
21 19.04 ЮЗ 1 20 км {снег} 10/0
[As op]
-0.5 -3.9 78 -2 -2 1018.2 1000.5 -0.5 0.0 28
00 20.04 Ю 2 20 км {снег} 9/0
[Ac und]
+2.0 -2.7 71 -1 +1 1017.8 1000.2 -1.4
03 20.04 Ю 2 50 км 9/1 600 м
[Cu hum Ac trans]
+4.6 -4.6 51 +3 +7 1016.4 998.9
06 20.04 Ю 4 50 км 9/9 600 м
[Cb calv]
+5.5 -5.6 45 +2 +3 1014.6 997.3
09 20.04 Ю 3 20 км 9/9 600 м
[Cb calv]
+4.9 -6.2 44 +2 +2 1013.7 996.3 +7.0
12 20.04 ЮВ 5 10 км 8/6 600 м
[Sc diur, vesp Ci fib]
+2.9 -4.7 57 -2 -2 1013.6 996.1
15 20.04 Ю 4 10 км 5/1 600 м
[Sc diur, vesp Ci fib]
+2.9 -8.6 42 -1 -1 1013.2 995.7
18 20.04 Ю 5 10 км 3/3 1000 м
[Sc]
+1.8 -7.6 50 -3 -3 1012.9 995.4
21 20.04 Ю 6 20 км 3/3 1000 м
[Sc]
+0.9 -7.6 53 -5 -5 1013.0 995.4 +0.8 25
00 21.04 Ю 5 20 км 3/0
[Ci fib]
+5.0 -11.6 29 +1 +4 1012.9 995.5
03 21.04 ЮЗ 4 50 км ясно +8.8 -11.4 23 +7 +13 1011.8 994.7
06 21.04 Ю 5 50 км 1/0
[Ci fib]
+9.5 -12.9 19 +7 +10 1011.3 994.2
09 21.04 ЮЗ 4 50 км ясно +9.8 -15.0 16 +8 +9 1011.4 994.3 +10.4
12 21.04 Ю 3 10 км 3/0
[Cs]
+6.6 -9.3 31 +4 +4 1013.1 995.9
15 21.04 Ю 3 10 км ясно +4.9 -5.3 48 +2 +2 1014.8 997.4
18 21.04 Ю 4 10 км 1/0
[Ci fib]
+3.2 -3.2 63 -1 -1 1015.7 998.1
21 21.04 ЮЗ 4 20 км 4/0
[Ci fib]
+3.1 -4.1 59 -1 -1 1016.4 998.8 +2.8 21
00 22.04 ЮЗ 5 20 км 3/0
[Ci fib]
+6.9 -3.1 49 +3 +7 1016.9 999.6
03 22.04 ЮЗ 3 20 км 8/0
[Ci fib]
+8.3 -1.7 49 +6 +13 1017.1 999.9
06 22.04 ЮЗ 3 20 км 10/0
[Cs]
+10.6 -2.1 41 +9 +13 1016.9 999.8
09 22.04 З 2 20 км 10/0
[Ci fib]
+9.3 -2.7 43 +8 +9 1017.3 1000.1 +11.2
12 22.04 ЮЗ 1 10 км 8/0
[Ci fib]
+5.8 -5.6 44 +5 +5 1018.5 1001.1
15 22.04 штиль 0 10 км 3/0
[Ci fib]
-0.5 -4.7 73 -1 -1 1020.1 1002.3
18 22.04 С 1 10 км ясно -4.0 -5.2 91 -6 -6 1021.2 1003.1
21 22.04 СВ 1 20 км ясно -5.3 -5.3 100 -8 -7 1022.1 1003.9 -5.3 20
00 23.04 штиль 0 20 км 3/0
[Ci fib]
-0.3 -2.4 86 -1 +7 1021.8 1004.0
03 23.04 Ю 1 50 км 5/0
[Cs]
+7.8 -3.6 44 +8 +18 опасность
простуды
1020.6 1003.3
06 23.04 СВ 1 50 км 8/3 600 м
[Cu hum Cs]
+11.4 -5.1 31 +12 +16 1020.3 1002.8
09 23.04 С 1 20 км 8/3 600 м
[Cu hum Cs]
+11.2 -5.5 31 +12 +12 1019.4 1002.3 +11.6
12 23.04 штиль 0 10 км 8/0
[Ac cast Cs]
+5.7 -5.3 45 +5 +5 1020.4 1003.0
15 23.04 ЮЗ 2 10 км 8/0
[Cs]
+6.0 -5.2 44 +4 +4 1021.2 1003.8
18 23.04 Ю 3 10 км 9/0
[Cs]
+6.0 -5.2 44 +3 +3 1022.8 1005.4
21 23.04 З 1 20 км 8/8 600 м
[Sc]
+4.6 -0.8 68 +4 +4 1023.8 1006.3 +2.7 11
00 24.04 ЮВ 2 20 км 4/4 600 м
[Sc]
+7.2 -2.6 50 +6 +10 1023.9 1006.5
03 24.04 Ю 3 50 км 6/6 600 м
[Cu med, cong]
+9.7 -2.1 44 +8 +11 1023.3 1006.1
06 24.04 В 3 50 км 8/8 600 м
[Cb calv]
+9.0 -2.1 46 +7 +8 1022.6 1005.3
09 24.04 20 км н/о +10.5 -2.6 40 +10 +11 1021.6 1004.4 +11.1
12 24.04 ЮЗ 2 10 км 6/6 1000 м
[Sc diur, vesp]
+6.4 -4.2 47 +5 +5 1022.1 1004.7
15 24.04 З 2 10 км 3/3 1000 м
[Sc diur, vesp]
+0.6 -4.8 67 -3 -3 1022.5 1004.7
18 24.04 З 2 10 км 6/6 1000 м
[Sc]
+1.3 -3.9 68 -2 -2 1022.5 1004.7
21 24.04 ЮЗ 1 20 км 9/9 1000 м
[Sc Ci fib]
+0.5 -3.5 75 -1 -1 1022.8 1005.0 -0.1 3
00 25.04 Ю 2 20 км 3/0
[Ci fib]
+4.4 -6.1 46 +2 +9 1022.3 1004.8
03 25.04 СЗ 2 20 км 8/0
[Ac und]
+8.4 -8.3 30 +7 +12 1020.7 1003.4

 

Местоположение метеостанции Охотский Перевоз (Якутия, Россия): широта 61.87 долгота 135.50 высота над уровнем моря 141 м.

В архиве по умолчанию представлена погода в Охотском Перевозе за последнюю неделю. Архивные данные за месяц целиком и за предыдущие месяцы, начиная с января 2011 года, Вы можете получить, выбрав интересующий диапазон дат из раскрывающегося списка и нажав кнопку "Ввод!".

Внимание! Время в таблицах - всемирное. Для получения местного времени необходимо прибавить поправку, которая в Охотском Перевозе равна 9 ч.

Смотрите также архив погоды в соседних городах и на ближайших метеорологических станциях:

Погода в Ытык-Кюёле (Якутия, Россия) (118 км)
Погода в Крест-Хальджае (Якутия, Россия) (120 км)
Погода в Теплом Ключе (Якутия, Россия) (121 км)
Погода в Чурапче (Якутия, Россия) (153 км)
Погода в Усть-Мае (Якутия, Россия) (179 км)
Погода в Амге (Якутия, Россия) (220 км)
Погода в Томпо (Якутия, Россия) (232 км)
Погода в Верхоянском Перевозе (Якутия, Россия) (241 км)
Погода в Восточной (Якутия, Россия) (259 км)
Погода в Югоренке (Якутия, Россия) (260 км)

Пояснения к столбцам:

Ветер - указаны скорость ветра в м/с - средняя за 10 мин, порывы в срок и между сроками (в фигурных скобках) и направление, откуда дует ветер: С - северный, СВ - северо-восточный, В - восточный, ЮВ - юго-восточный, Ю - южный, ЮЗ - юго-западный, З - западный, СЗ - северо-западный.
Видимость - горизонтальная дальность видимости в метрах или километрах. При видимости от 1 до 10 км при отсутствии осадков обычно наблюдается дымка, при ухудшении видимости до 1 км и менее - туман. В сухую погоду видимость может ухудшаться дымом, пылью или мглою.
Явления - указаны атмосферные явления, наблюдавшиеся в срок или в последний час перед сроком; фигурными скобками обозначены явления, наблюдавшиеся между сроками (за 1-3 часа до срока); квадратными скобками обозначены град или гололедные отложения с указанием их диаметра в мм.
Облачность - указаны через наклонную черту общая и нижняя облачность в баллах и высота нижней границы облаков в метрах; квадратными скобками обозначены формы облаков: Ci - перистые, Cs - перисто-слоистые, Cc - перисто-кучевые, Ac - высококучевые, As - высокослоистые, Sc - слоисто-кучевые, Ns - слоисто-дождевые, Cu - кучевые, Cb - кучево-дождевые. Подробнее классификацию облаков см. в Атласе облаков (PDF).
T - Температура воздуха - температура, измеренная на высоте 2 м над землей.
Td - Температура точки росы - температура, при понижении до которой содержащийся в воздухе водяной пар достигнет насыщения.
f - Относительная влажность воздуха - влажноcть воздуха, измеренная на высоте 2 м над землей.
Te - Эффективная температура - температура, которую ощущает одетый по сезону человек в тени. Характеристика душности погоды. При расчете учитывается влияние влажности воздуха и скорости ветра на теплоощущения человека.
Tes - Эффективная температура на солнце - температура, которую ощущает человек, с поправкой на солнечный нагрев. Характеристика знойности погоды. Зависит от высоты солнца над горизонтом, облачности и скорости ветра. Ночью, в пасмурную погоду, а также при ветре 12 м/с и более поправка равна нулю.
P - Атмосферное давление - приведенное к уровню моря атмосферное давление.
Po - Атмосферное давление - измеренное на уровне метеостанции атмосферное давление.
Tmin - Минимальная температура - минимум температуры воздуха на высоте 2 м над землей.
Tmax - Максимальная температура - максимум температуры воздуха на высоте 2 м над землей.
R - Количество осадков - Количество выпавших осадков за период времени, мм. При наведении курсора мыши на число - период времени, за который выпало указанное количество осадков.
R24 - Количество осадков - Количество выпавших осадков за 24 часа, мм.
S - Снежный покров - Высота снежного покрова, см. При наведении курсора мыши на число - состояние снежного покрова и степень покрытия местности в баллах.